Flag for Peru Weather past 2 weeks in Chiclayo, Lambayeque, Peru

Now
75 °F

Sunny.


Feels Like: 77 °F
Forecast: 64 / 77 °F
Wind: 18 mph from South

Location: Chiclayo Airport

Current Time: Jul 24, 2014 at 4:15:03 PM

Latest Report: Jul 24, 2014 at 4:00 PM


Visibility: 10 mi

Pressure: 29.80 "Hg

Humidity: 61%

Dew point: 61 °F

Location of ChiclayoLocation

Historic Weather in Chiclayo — Graph

°F

Chiclayo temperature yesterday

Maximum temperature yesterday: 75 °F (at 2:00 PM)
Minimum temperature yesterday: 61 °F (at 4:00 AM)
Average temperature yesterday: 67 °F

Past Weeks' High & Low Weather Summary

 TemperatureHumidityPressure
High79 °F (Jul 9, 3:00 PM)100% (Jul 18, 7:00 AM)30.01 "Hg (Jul 18, 7:00 AM)
Low59 °F (Jul 17, 7:00 AM)51% (Jul 16, 3:00 PM)29.77 "Hg (Jul 10, 2:00 PM)
Average68 °F78%29.91 "Hg
* Reported Jul 9 3:00 PM — Jul 24 3:00 PM, Chiclayo, Weather by CustomWeather, © 2014

Note: Actual official high and low records may vary slightly from our data, if they occured in-between our weather recording intervals... More about our weather records

Advertising

Chiclayo weather history for previous 24 hours

 ConditionsComfort  
Time TempWeatherWind HumidityBarometerVisibility
3:00 PM
Jul 24
77 °FSunny.16 mph57%29.83 "Hg10 mi
2:00 PM77 °FSunny.14 mph57%29.83 "Hg10 mi
1:00 PM75 °FScattered clouds.14 mph61%29.86 "HgN/A
12:00 PM75 °FScattered clouds.13 mph61%29.89 "HgN/A
11:00 AM75 °FPartly sunny.9 mph61%29.89 "HgN/A
10:00 AM72 °FPartly sunny.8 mph69%29.92 "HgN/A
9:00 AM68 °FPassing clouds.7 mph73%29.92 "HgN/A
8:00 AM64 °FClear.5 mph83%29.89 "Hg5 mi
7:00 AM61 °FClear.No wind88%29.89 "Hg5 mi
6:00 AM61 °FClear.No wind88%29.86 "Hg10 mi
5:00 AM63 °FClear.2 mph88%29.86 "Hg10 mi
4:00 AM63 °FPassing clouds.5 mph88%29.86 "HgN/A
3:00 AM63 °FPassing clouds.6 mph88%29.86 "HgN/A
2:00 AM63 °FClear.6 mph88%29.89 "Hg10 mi
1:00 AM63 °FClear.12 mph88%29.89 "Hg10 mi
12:00 AM63 °FClear.15 mph88%29.92 "Hg10 mi
11:00 PM
Jul 23
63 °FClear.16 mph88%29.92 "Hg10 mi
10:00 PM63 °FClear.15 mph88%29.92 "Hg10 mi
9:00 PM63 °FClear.17 mph88%29.92 "Hg10 mi
8:00 PM64 °FClear.17 mph83%29.89 "Hg10 mi
7:00 PM66 °FClear.20 mph78%29.86 "Hg10 mi
6:00 PM68 °FSunny.23 mph73%29.86 "Hg10 mi
5:00 PM72 °FSunny.22 mph69%29.83 "Hg10 mi
4:00 PM73 °FPassing clouds.18 mph61%29.86 "HgN/A
Weather by CustomWeather, © 2014

See weather overviewHow to use our weather pages